Weather History for Medicine Hat, AB

Change the Weather History Date:

Thursday, March 14, 2013

  Actual Average Record
Temperature  
Mean Temperature 3 °F -  
Max Temperature 24 °F 47 °F 68 °F (1999)
Min Temperature -18 °F 25 °F -18 °F (2013)
Degree Days  
Heating Degree Days 62    
Moisture  
Dew Point 20 °F    
Average Humidity 90    
Maximum Humidity 100    
Minimum Humidity 71    
Precipitation  
Precipitation 0.00 in 0.03 in - ()
Sea Level Pressure  
Sea Level Pressure 30.19 in    
Wind  
Wind Speed 10 mph ()    
Max Wind Speed 25 mph    
Max Gust Speed 18 mph    
Visibility 8.3 miles    
Events Rain    
Averages and records for this station are not official NWS values.
T = Trace of Precipitation, MM = Missing Value Source: Averaged Metar Reports

Daily Weather History Graph

Daily Weather History Graph

Search for Another Location

Airport:

Trip Planner

Search our weather history database for the weather conditions in past years. The results will help you decide how hot, cold, wet, or windy it might be!

Date:

Astronomy

Mar. 14, 2013 Rise Set
Actual Time 7:37 AM MDT 7:26 PM MDT
Civil Twilight 7:05 AM MDT 7:59 PM MDT
Nautical Twilight 6:28 AM MDT 8:36 PM MDT
Astronomical Twilight 5:49 AM MDT 9:15 PM MDT
Moon 8:32 AM MDT (3/14) 11:11 PM MDT (3/14)
Length of Visible Light 12h 53m
Length of Day
11h 48m
Waxing Crescent, 9% of the Moon is Illuminated
Mar 14
Waxing Crescent
Mar 19
First Quarter
Mar 27
Full
Apr 2
Last Quarter
Apr 10
New

Hourly Weather History & Observations

Time (MDT) Temp. Windchill Dew Point Humidity Pressure Visibility Wind Dir Wind Speed Gust Speed Precip Events Conditions
12:00 AM -4 °F - -7 °F 80% 30.33 in - WSW 9.2 mph - -  
12:00 AM 44.6 °F 39.7 °F 35.6 °F 71% 29.99 in 9.0 mi SSW 9.2 mph - N/A   Overcast
1:00 AM 41.0 °F 33.9 °F 33.8 °F 76% 29.99 in 9.0 mi SSW 12.7 mph - N/A   Scattered Clouds
2:00 AM 39.2 °F 33.6 °F 33.8 °F 81% 30.00 in 9.0 mi SW 8.1 mph - N/A   Overcast
3:00 AM 32.0 °F 26.4 °F 30.2 °F 93% 30.03 in 9.0 mi North 5.8 mph - N/A   Mostly Cloudy
3:29 AM 30.2 °F 21.9 °F 28.4 °F 93% 30.04 in 5.0 mi North 9.2 mph - N/A   Scattered Clouds
4:00 AM 28.4 °F 18.5 °F 26.6 °F 93% 30.05 in 4.0 mi North 11.5 mph - N/A   Overcast
5:00 AM 24.8 °F 14.0 °F 24.8 °F 100% 30.08 in 5.0 mi North 11.5 mph 18.4 mph N/A   Overcast
5:23 AM 24.8 °F 14.0 °F 24.8 °F 100% 30.10 in 5.0 mi North 11.5 mph - N/A   Overcast
5:39 AM 24.8 °F 14.0 °F 24.8 °F 100% 30.11 in 5.0 mi NNE 11.5 mph - N/A   Overcast
6:00 AM -14 °F - -18 °F 71% 30.27 in - SSW 17.3 mph - -  
6:00 AM 24.8 °F 14.6 °F 24.8 °F 100% 30.12 in 4.0 mi NNE 10.4 mph - N/A   Overcast
7:00 AM 24.8 °F 14.6 °F 24.8 °F 100% 30.17 in 4.0 mi NE 10.4 mph - N/A   Overcast
7:28 AM 24.8 °F 14.6 °F 24.8 °F 100% 30.18 in 3.0 mi NNE 10.4 mph - N/A   Overcast
8:00 AM 26.6 °F 16.2 °F 24.8 °F 93% 30.19 in 3.0 mi NE 11.5 mph - N/A   Overcast
8:25 AM 26.6 °F 15.7 °F 23.0 °F 86% 30.20 in 7.0 mi NNE 12.7 mph - N/A   Overcast
9:00 AM 24.8 °F 13.4 °F 23.0 °F 93% 30.22 in 10.0 mi North 12.7 mph - N/A   Overcast
10:00 AM 26.6 °F 17.5 °F 23.0 °F 86% 30.24 in 10.0 mi NNE 9.2 mph 17.3 mph N/A   Overcast
11:00 AM 24.8 °F 13.4 °F 21.2 °F 86% 30.26 in 10.0 mi North 12.7 mph - N/A   Overcast
12:00 PM -6 °F - -9 °F 79% 30.35 in - West 17.3 mph - -  
12:00 PM 24.8 °F 14.6 °F 21.2 °F 86% 30.26 in 10.0 mi NNE 10.4 mph - N/A   Overcast
1:00 PM 24.8 °F 13.4 °F 21.2 °F 86% 30.28 in 10.0 mi North 12.7 mph - N/A   Overcast
1:50 PM 24.8 °F 13.4 °F 21.2 °F 86% 30.28 in 10.0 mi North 12.7 mph - N/A   Overcast
2:00 PM 24.8 °F 14.0 °F 21.2 °F 86% 30.29 in 10.0 mi North 11.5 mph - N/A   Overcast
3:00 PM 21.2 °F 8.9 °F 19.4 °F 93% 30.28 in 10.0 mi North 12.7 mph - N/A   Overcast
4:00 PM 21.2 °F 9.5 °F 19.4 °F 93% 30.27 in 10.0 mi North 11.5 mph 17.3 mph N/A   Overcast
4:10 PM 21.2 °F 10.1 °F 19.4 °F 93% 30.27 in 10.0 mi North 10.4 mph - N/A   Overcast
5:00 PM 23.0 °F 13.1 °F 21.2 °F 93% 30.26 in 10.0 mi NE 9.2 mph - N/A   Overcast
5:14 PM 23.0 °F 12.4 °F 23.0 °F 100% 30.25 in 8.0 mi NE 10.4 mph - N/A   Light Freezing Drizzle
5:51 PM 23.0 °F 13.1 °F 23.0 °F 100% 30.22 in 8.0 mi NE 9.2 mph - N/A Rain Light Freezing Rain
6:00 PM -1 °F - -3 °F 85% 30.39 in - West 25.3 mph - -  
6:00 PM 23.0 °F 12.4 °F 23.0 °F 100% 30.22 in 8.0 mi NE 10.4 mph - N/A Rain Light Freezing Rain
6:31 PM 23.0 °F 12.4 °F 23.0 °F 100% 30.19 in 8.0 mi NE 10.4 mph - N/A   Overcast
7:00 PM 23.0 °F 13.1 °F 21.2 °F 93% 30.18 in 10.0 mi ENE 9.2 mph - N/A   Overcast
7:24 PM 24.8 °F 16.1 °F 21.2 °F 86% 30.17 in 10.0 mi NE 8.1 mph - N/A   Overcast
8:00 PM 24.8 °F 12.9 °F 23.0 °F 93% 30.15 in 15.0 mi NE 13.8 mph - N/A   Overcast
9:00 PM 24.8 °F 15.3 °F 21.2 °F 86% 30.16 in 15.0 mi NE 9.2 mph - N/A   Overcast
10:00 PM 23.0 °F 11.7 °F 21.2 °F 93% 30.14 in 9.0 mi NE 11.5 mph 17.3 mph N/A   Overcast
11:00 PM 21.2 °F 10.1 °F 19.4 °F 93% 30.14 in 9.0 mi NE 10.4 mph 17.3 mph N/A   Overcast